Location: Nitra
(0.0000°N, 18.0833°E)
Time: 12:56:32
(UTC+02:00)

Explorer 11/Cluster Stage 4 - Visible Passes

Search period start: 29 March 2023 00:00
Search period end: 08 April 2023 00:00
Orbit: 466 x 1241 km, 28.8° (Epoch: 28 March)

Date Brightness Start Highest point End Pass type
(mag) Time Alt. Az. Time Alt. Az. Time Alt. Az.
02 Apr 9.5 21:22:17 10° SSW 21:22:22 10° SSW 21:22:22 10° SSW visible
03 Apr 9.2 21:07:47 10° SSW 21:09:36 15° S 21:09:36 15° S visible
04 Apr 8.8 20:53:24 10° SSW 20:56:54 20° S 20:56:54 20° S visible
05 Apr 8.4 20:39:03 10° SSW 20:44:17 27° S 20:44:17 27° S visible
06 Apr 8.0 20:24:46 10° SW 20:31:37 33° SSE 20:31:46 33° SSE visible
06 Apr 9.8 22:13:30 10° WSW 22:13:44 11° WSW 22:13:44 11° WSW visible
07 Apr 7.8 20:10:31 10° SW 20:17:47 38° SSE 20:19:19 34° SE visible
07 Apr 9.4 21:59:29 10° WSW 22:01:17 18° WSW 22:01:17 18° WSW visible
